N805AB KBDL-KSYR

Flight info

Callsign N805AB
Flight time N/A
Altitude VFR/105
Route
Aircraft C700/M-VGDW/C

Departure

Time N/A
Airport Bradley International Airport (KBDL)

Arrival

Time 2026-04-30 01:44
Airport Syracuse Hancock International Airport (KSYR)
Time Latitude Longitude Altitude Speed Heading
2026-04-30 01:15 43.09061 -75.48346 10273 ft 280 kts 291°
2026-04-30 01:16 43.09906 -75.50661 9977 ft 272 kts 291°
2026-04-30 01:16 43.10735 -75.52938 9670 ft 264 kts 291°
2026-04-30 01:16 43.11546 -75.55168 9343 ft 259 kts 291°
2026-04-30 01:16 43.12338 -75.57351 9011 ft 254 kts 291°
2026-04-30 01:17 43.13107 -75.59505 8681 ft 249 kts 289°
2026-04-30 01:17 43.13887 -75.61609 8365 ft 249 kts 298°
2026-04-30 01:17 43.14865 -75.63552 8050 ft 245 kts 295°
2026-04-30 01:17 43.15505 -75.65655 7649 ft 237 kts 275°
2026-04-30 01:18 43.15536 -75.67889 7218 ft 235 kts 259°
2026-04-30 01:18 43.15288 -75.70071 7189 ft 224 kts 255°
2026-04-30 01:18 43.14997 -75.72121 6999 ft 223 kts 257°
2026-04-30 01:18 43.15123 -75.74292 6614 ft 238 kts 284°
2026-04-30 01:19 43.15903 -75.76285 6345 ft 243 kts 298°
2026-04-30 01:19 43.16830 -75.78214 6338 ft 243 kts 299°
2026-04-30 01:19 43.17747 -75.80170 6379 ft 245 kts 298°
2026-04-30 01:19 43.18665 -75.82128 6371 ft 246 kts 298°
2026-04-30 01:20 43.19595 -75.84122 6213 ft 250 kts 298°
2026-04-30 01:20 43.20536 -75.86139 6073 ft 252 kts 298°
2026-04-30 01:20 43.21485 -75.88175 5922 ft 254 kts 298°
2026-04-30 01:20 43.22440 -75.90226 5773 ft 256 kts 298°
2026-04-30 01:21 43.23179 -75.92384 5624 ft 246 kts 276°
2026-04-30 01:21 43.23353 -75.94694 5435 ft 243 kts 270°
2026-04-30 01:21 43.23394 -75.97014 5255 ft 243 kts 268°
2026-04-30 01:21 43.23414 -75.99312 5265 ft 238 kts 267°
2026-04-30 01:22 43.23423 -76.01551 5258 ft 234 kts 267°
2026-04-30 01:22 43.23422 -76.03787 5004 ft 242 kts 266°
2026-04-30 01:22 43.23411 -76.06109 4845 ft 243 kts 266°
2026-04-30 01:22 43.23393 -76.08419 4712 ft 244 kts 266°
2026-04-30 01:23 43.23364 -76.10763 4383 ft 247 kts 265°
2026-04-30 01:23 43.23333 -76.13112 4237 ft 242 kts 265°
2026-04-30 01:23 43.23295 -76.15418 3949 ft 244 kts 265°
2026-04-30 01:23 43.23262 -76.17794 3536 ft 252 kts 265°
2026-04-30 01:24 43.23255 -76.20198 3204 ft 254 kts 265°
2026-04-30 01:24 43.23254 -76.22610 3030 ft 249 kts 265°
2026-04-30 01:24 43.23266 -76.24924 3082 ft 237 kts 265°
2026-04-30 01:24 43.23290 -76.27158 3038 ft 231 kts 266°
2026-04-30 01:25 43.23330 -76.29338 2984 ft 227 kts 267°
2026-04-30 01:25 43.23367 -76.31472 2852 ft 227 kts 267°
2026-04-30 01:25 43.23406 -76.33624 2833 ft 225 kts 267°
2026-04-30 01:25 43.23452 -76.35779 2773 ft 226 kts 267°
2026-04-30 01:26 43.23497 -76.37895 2879 ft 219 kts 267°
2026-04-30 01:26 43.23396 -76.39964 2783 ft 216 kts 245°
2026-04-30 01:26 43.22243 -76.41085 2780 ft 216 kts 184°
2026-04-30 01:26 43.20744 -76.40930 2947 ft 216 kts 176°
2026-04-30 01:27 43.19226 -76.40743 2991 ft 222 kts 176°
2026-04-30 01:27 43.17682 -76.40548 3105 ft 223 kts 176°
2026-04-30 01:27 43.16137 -76.40336 3233 ft 224 kts 176°
2026-04-30 01:27 43.14617 -76.40107 3562 ft 216 kts 176°
2026-04-30 01:28 43.13070 -76.39882 3408 ft 229 kts 175°
2026-04-30 01:28 43.11577 -76.38992 3306 ft 246 kts 144°
2026-04-30 01:28 43.10571 -76.37069 3300 ft 258 kts 116°
2026-04-30 01:28 43.10100 -76.34656 3237 ft 265 kts 107°
2026-04-30 01:29 43.09677 -76.32181 3099 ft 272 kts 107°
2026-04-30 01:29 43.09301 -76.29753 3613 ft 251 kts 106°
2026-04-30 01:29 43.08992 -76.27482 3883 ft 236 kts 105°
2026-04-30 01:29 43.08722 -76.25295 3897 ft 230 kts 110°
2026-04-30 01:30 43.07934 -76.23501 3878 ft 217 kts 142°
2026-04-30 01:30 43.06634 -76.22623 3807 ft 208 kts 173°
2026-04-30 01:30 43.05242 -76.22877 3739 ft 203 kts 207°
2026-04-30 01:30 43.04242 -76.24187 3738 ft 201 kts 234°
2026-04-30 01:31 43.03530 -76.25851 3604 ft 205 kts 238°
2026-04-30 01:31 43.02856 -76.27557 3612 ft 201 kts 239°
2026-04-30 01:31 43.02216 -76.29235 3661 ft 195 kts 239°
2026-04-30 01:31 43.01464 -76.30685 3657 ft 186 kts 213°
2026-04-30 01:32 43.00218 -76.31016 3575 ft 189 kts 175°
2026-04-30 01:32 42.98954 -76.30615 3527 ft 188 kts 170°
2026-04-30 01:32 42.97670 -76.30183 3619 ft 201 kts 170°
2026-04-30 01:32 42.96202 -76.29709 3767 ft 233 kts 171°
2026-04-30 01:33 42.94542 -76.29205 3831 ft 251 kts 171°
2026-04-30 01:33 42.92794 -76.28691 3866 ft 261 kts 171°
2026-04-30 01:33 42.90996 -76.28150 3950 ft 269 kts 170°
2026-04-30 01:33 42.89126 -76.27577 3901 ft 279 kts 172°
2026-04-30 01:34 42.87257 -76.28025 3934 ft 284 kts 213°
2026-04-30 01:34 42.86233 -76.30332 3885 ft 299 kts 255°
2026-04-30 01:34 42.86301 -76.33229 3884 ft 310 kts 270°
2026-04-30 01:34 42.86412 -76.36194 3933 ft 317 kts 271°
2026-04-30 01:35 42.86577 -76.39121 4148 ft 304 kts 271°
2026-04-30 01:35 42.86734 -76.41952 3914 ft 298 kts 271°
2026-04-30 01:35 42.86863 -76.44748 3731 ft 291 kts 269°
2026-04-30 01:35 42.86921 -76.47412 3745 ft 279 kts 268°
2026-04-30 01:36 42.86961 -76.49991 3783 ft 267 kts 268°
2026-04-30 01:36 42.87546 -76.52375 3698 ft 279 kts 307°
2026-04-30 01:36 42.89216 -76.53729 3681 ft 287 kts 341°
2026-04-30 01:36 42.91164 -76.54263 3754 ft 283 kts 347°
2026-04-30 01:37 42.93100 -76.54784 3694 ft 285 kts 346°
2026-04-30 01:37 42.95023 -76.55343 3786 ft 280 kts 345°
2026-04-30 01:37 42.96922 -76.55906 3806 ft 279 kts 345°
2026-04-30 01:37 42.98826 -76.56457 3808 ft 279 kts 347°
2026-04-30 01:38 43.00755 -76.56576 3850 ft 280 kts
2026-04-30 01:38 43.02530 -76.55481 3790 ft 284 kts 40°
2026-04-30 01:38 43.03662 -76.53287 3579 ft 288 kts 74°
2026-04-30 01:38 43.04280 -76.50727 3494 ft 289 kts 65°
2026-04-30 01:39 43.05291 -76.48362 3497 ft 288 kts 61°
2026-04-30 01:39 43.06304 -76.46005 3388 ft 287 kts 62°
2026-04-30 01:39 43.07287 -76.43649 3190 ft 281 kts 63°
2026-04-30 01:39 43.08229 -76.41338 2983 ft 271 kts 63°
2026-04-30 01:40 43.09131 -76.39083 2573 ft 270 kts 64°
2026-04-30 01:40 43.10043 -76.36815 2087 ft 274 kts 64°
2026-04-30 01:40 43.10879 -76.34533 1827 ft 264 kts 72°
2026-04-30 01:40 43.11378 -76.32156 1582 ft 256 kts 78°
2026-04-30 01:41 43.11816 -76.29890 1625 ft 237 kts 78°
2026-04-30 01:41 43.12113 -76.27740 1537 ft 222 kts 94°
2026-04-30 01:41 43.11675 -76.25839 1381 ft 208 kts 125°
2026-04-30 01:41 43.11036 -76.24120 1187 ft 202 kts 102°
2026-04-30 01:42 43.11060 -76.22254 1106 ft 187 kts 88°
2026-04-30 01:42 43.11041 -76.20541 1090 ft 176 kts 99°
2026-04-30 01:42 43.10795 -76.19032 1161 ft 149 kts 106°
2026-04-30 01:42 43.10662 -76.17671 1010 ft 141 kts 92°
2026-04-30 01:43 43.10702 -76.16485 881 ft 115 kts 86°
2026-04-30 01:43 43.10734 -76.15424 715 ft 113 kts 88°
2026-04-30 01:43 43.10768 -76.14343 653 ft 115 kts 87°
2026-04-30 01:43 43.10805 -76.13237 539 ft 116 kts 88°
2026-04-30 01:44 43.10838 -76.12151 420 ft 107 kts 87°
2026-04-30 01:44 43.10866 -76.11350 416 ft 57 kts 87°
2026-04-30 01:44 43.10878 -76.10951 416 ft 34 kts 88°
2026-04-30 01:44 43.10877 -76.10663 411 ft 25 kts 91°
2026-04-30 01:45 43.10796 -76.10558 408 ft 12 kts 176°
2026-04-30 01:45 43.10712 -76.10551 409 ft 12 kts 176°
2026-04-30 01:45 43.10652 -76.10589 411 ft 14 kts 262°
2026-04-30 01:45 43.10643 -76.10836 411 ft 37 kts 268°
2026-04-30 01:46 43.10631 -76.11202 414 ft 27 kts 268°
2026-04-30 01:46 43.10662 -76.11299 414 ft 20 kts 350°
2026-04-30 01:46 43.10736 -76.11419 415 ft 24 kts 267°
2026-04-30 01:46 43.10714 -76.11714 416 ft 29 kts 238°
2026-04-30 01:47 43.10671 -76.11810 417 ft 0 kts 265°